EZY41JK LICJ-EGKK

Flight info

Callsign EZY41JK
Flight time N/A
Altitude 34000
Route GIANO6R GIANO DCT ABKON DCT SUKUN DCT RUGOX DCT MADKA DCT AJO DCT OMEDA DCT MERLU DCT PIGOS DCT BARSO DCT OKTET DCT GIPNO DCT BULOL DCT IDAVO DCT BAGBI DCT SIZZA DCT LAULY DCT BRY DCT CLM DCT KOPOR DCT KESAX DCT KUNAV KUNAV1G
Aircraft A320/M-SDE3FGHIRWY/LB1

Departure

Time N/A
Airport Falcone–Borsellino Airport (LICJ)

Arrival

Time 2026-05-04 17:00
Airport London Gatwick Airport (EGKK)
Time Latitude Longitude Altitude Speed Heading
2026-05-04 16:21 48.84961 2.97041 34973 ft 496 kts 328°
2026-05-04 16:22 48.91050 2.92096 34979 ft 496 kts 328°
2026-05-04 16:23 49.09269 2.77204 34976 ft 496 kts 328°
2026-05-04 16:25 49.27447 2.62167 35008 ft 497 kts 328°
2026-05-04 16:26 49.48696 2.44457 35001 ft 497 kts 328°
2026-05-04 16:27 49.54248 2.38447 35003 ft 489 kts 315°
2026-05-04 16:28 49.61986 2.28170 34997 ft 489 kts 315°
2026-05-04 16:29 49.79909 2.04238 33882 ft 480 kts 315°
2026-05-04 16:30 49.87464 1.94049 32175 ft 475 kts 315°
2026-05-04 16:31 49.92418 1.87360 31100 ft 471 kts 315°
2026-05-04 16:31 49.99757 1.77417 29477 ft 465 kts 316°
2026-05-04 16:32 50.07038 1.67503 27746 ft 467 kts 316°
2026-05-04 16:33 50.11876 1.60918 26650 ft 459 kts 316°
2026-05-04 16:33 50.16693 1.54386 25589 ft 460 kts 316°
2026-05-04 16:34 50.20708 1.48922 24743 ft 462 kts 316°
2026-05-04 16:34 50.23104 1.45647 24243 ft 450 kts 316°
2026-05-04 16:35 50.30721 1.35261 22765 ft 428 kts 316°
2026-05-04 16:35 50.37354 1.26144 21389 ft 418 kts 316°
2026-05-04 16:36 50.38794 1.24157 21103 ft 416 kts 317°
2026-05-04 16:36 50.43100 1.18215 20240 ft 409 kts 317°
2026-05-04 16:37 50.47999 1.11427 19273 ft 398 kts 317°
2026-05-04 16:37 50.49392 1.09495 18996 ft 394 kts 317°
2026-05-04 16:37 50.53206 1.03703 18172 ft 373 kts 311°
2026-05-04 16:38 50.56695 0.97822 17256 ft 358 kts 312°
2026-05-04 16:39 50.61696 0.89383 15997 ft 348 kts 311°
2026-05-04 16:39 50.64944 0.83894 15194 ft 334 kts 311°
2026-05-04 16:40 50.68034 0.78611 14418 ft 327 kts 310°
2026-05-04 16:40 50.70904 0.73109 13632 ft 324 kts 307°
2026-05-04 16:41 50.73679 0.67532 12781 ft 321 kts 307°
2026-05-04 16:41 50.77823 0.59316 11545 ft 314 kts 307°
2026-05-04 16:42 50.81596 0.51904 11012 ft 264 kts 307°
2026-05-04 16:43 50.83870 0.47405 11015 ft 261 kts 307°
2026-05-04 16:43 50.86138 0.42917 11013 ft 261 kts 307°
2026-05-04 16:43 50.87270 0.40673 11009 ft 262 kts 307°
2026-05-04 16:44 50.91774 0.31727 11001 ft 260 kts 307°
2026-05-04 16:45 50.94025 0.27238 10999 ft 260 kts 304°
2026-05-04 16:46 50.96144 0.19424 11003 ft 259 kts 289°
2026-05-04 16:46 50.97495 0.14157 10818 ft 259 kts 303°
2026-05-04 16:47 50.99847 0.09834 10189 ft 258 kts 311°
2026-05-04 16:47 51.02280 0.05673 9542 ft 256 kts 311°
2026-05-04 16:48 51.05871 -0.00475 8819 ft 254 kts 311°
2026-05-04 16:48 51.07070 -0.02538 8458 ft 253 kts 311°
2026-05-04 16:49 51.09435 -0.06618 8022 ft 248 kts 310°
2026-05-04 16:49 51.10376 -0.11613 8032 ft 243 kts 260°
2026-05-04 16:50 51.09708 -0.16866 8026 ft 244 kts 256°
2026-05-04 16:50 51.08971 -0.22136 7978 ft 246 kts 256°
2026-05-04 16:51 51.08239 -0.27325 7288 ft 230 kts 256°
2026-05-04 16:51 51.07896 -0.29738 7052 ft 216 kts 256°
2026-05-04 16:51 51.07273 -0.34166 7018 ft 200 kts 256°
2026-05-04 16:52 51.06668 -0.38455 7012 ft 198 kts 256°
2026-05-04 16:52 51.06364 -0.40636 6622 ft 208 kts 256°
2026-05-04 16:53 51.05704 -0.45278 5446 ft 221 kts 256°
2026-05-04 16:53 51.04630 -0.52500 4025 ft 216 kts 256°
2026-05-04 16:54 51.04380 -0.54727 4012 ft 196 kts 275°
2026-05-04 16:55 51.08560 -0.56778 4019 ft 191 kts 26°
2026-05-04 16:55 51.10000 -0.53522 3695 ft 188 kts 83°
2026-05-04 16:56 51.10550 -0.49503 3304 ft 186 kts 77°
2026-05-04 16:56 51.11405 -0.43485 2997 ft 186 kts 77°
2026-05-04 16:57 51.11688 -0.41473 2828 ft 185 kts 77°
2026-05-04 16:57 51.12239 -0.37539 2389 ft 171 kts 77°
2026-05-04 16:58 51.12996 -0.32183 1674 ft 162 kts 77°
2026-05-04 16:58 51.13239 -0.30447 1404 ft 156 kts 77°
2026-05-04 16:59 51.13665 -0.27304 944 ft 137 kts 77°
2026-05-04 17:00 51.14475 -0.21498 350 ft 132 kts 78°
2026-05-04 17:00 51.14930 -0.18216 212 ft 31 kts 77°
2026-05-04 17:01 51.15004 -0.17911 214 ft 15 kts 57°
2026-05-04 17:01 51.15138 -0.17767 205 ft 0 kts 351°
2026-05-04 17:03 51.15173 -0.17777 205 ft 16 kts 351°
2026-05-04 17:03 51.15242 -0.17879 208 ft 16 kts 262°
2026-05-04 17:03 51.15274 -0.18109 206 ft 11 kts 348°
2026-05-04 17:04 51.15460 -0.18176 206 ft 17 kts 342°
2026-05-04 17:04 51.15660 -0.18222 207 ft 10 kts 45°
2026-05-04 17:05 51.15699 -0.17962 207 ft 14 kts 77°
2026-05-04 17:05 51.15696 -0.17810 213 ft 4 kts 168°
2026-05-04 17:06 51.15658 -0.17795 205 ft 0 kts 167°
2026-05-04 17:06 51.15656 -0.17794 216 ft 0 kts 167°